Regional Weather Roundup
Issued by NWS

Home | Current Version | Previous Version | Text Only | Print | Product List | Glossary On
Versions: 1 2 3 4 5 6 7 8 9 10 11 12 13 14 15 16 17 18 19 20 21 22 23 24 25 26 27
000
ASUS45 KBOI 100210
RWRID

IDAHO REGIONAL WEATHER ROUNDUP
NATIONAL WEATHER SERVICE BOISE ID
700 PM MST FRI DEC 09 2016

NOTE: "FAIR" INDICATES FEW OR NO CLOUDS BELOW 12000 FEET
WITH NO SIGNIFICANT WEATHER AND/OR OBSTRUCTIONS TO VISIBILITY

IDZ012-014-100300-
SOUTHWEST IDAHO


CITY           SKY/WX    TMP DP  RH WIND       PRES   REMARKS
BOISE          MIX PCPN  30  29  96 W3        30.02S VSB 1
CALDWELL       MIX PCPN  30  28  92 CALM      30.06F
MOUNTAIN HOME  LGT RAIN  34  34 100 NE7       30.00F WCI  27
$$

IDZ016-017-100300-
SOUTHCENTRAL IDAHO


CITY           SKY/WX    TMP DP  RH WIND       PRES   REMARKS
BURLEY         CLOUDY    35  33  92 N6        30.01F WCI  30
JEROME         LGT RAIN  36  35  96 NE10      30.01F WCI  28
TWIN FALLS     CLOUDY    39  33  79 S12       29.99F WCI  32
$$

IDZ019>023-100300-
SOUTHEAST IDAHO


CITY           SKY/WX    TMP DP  RH WIND       PRES   REMARKS
IDAHO FALLS    LGT SNOW  25  22  88 CALM      30.05S FOG
POCATELLO      LGT RAIN  35  33  92 S12       30.06S WCI  27
REXBURG        LGT SNOW  24  23  96 CALM      30.04F FOG
$$

IDZ006-010-011-018-031-032-100300-
CENTRAL IDAHO MOUNTAINS


CITY           SKY/WX    TMP DP  RH WIND       PRES   REMARKS
MCCALL         LGT SNOW  29  26  89 SW3       29.91F FOG
STANLEY          N/A     32  31  96 SE6       29.93F WCI  26
SALMON         CLOUDY    18  16  93 CALM      30.02F
CHALLIS        LGT SNOW  19  18  95 CALM      29.96F FOG
$$

IDZ002-004-006-007-026-100300-
NORTHERN IDAHO


CITY           SKY/WX    TMP DP  RH WIND       PRES   REMARKS
LEWISTON       CLOUDY    26  23  88 W3        30.00S
LOWELL           N/A     28  24  85 CALM      30.06F
COEUR D`ALENE  LGT SNOW  18  14  84 N14       29.99F FOG     WCI   4
MULLAN PASS    LGT SNOW  17  14  88 S7        29.80F FOG     WCI   8
$$




USA.gov is the U.S. government's official web portal to all federal, state and local government web resources and services.